Regional Weather Roundup
Issued by NWS

Home | Current Version | Previous Version | Graphics & Text | Print | Product List | Glossary On
Versions: 1 2 3 4 5 6 7 8 9 10 11 12 13 14 15 16 17 18 19 20 21 22 23 24 25 26 27 28 29 30 31 32 33 34 35 36 37 38 39 40 41 42 43 44 45 46 47 48 49 50
591
ASUS45 KSLC 292110
RWRUT

UTAH REGIONAL WEATHER ROUNDUP
NATIONAL WEATHER SERVICE SALT LAKE CITY UT
300 PM MDT THU SEP 29 2016

UTZ001>011-023>025-292200-

NORTHERN UTAH

CITY           SKY/WX    TMP DP  RH WIND       PRES   REMARKS
BRIGHAM CITY     N/A     67  50  53 NE3       30.24F
DUGWAY         PTSUNNY   76  49  39 W6        30.20
HILL AFB       PTSUNNY   68  50  52 N13       30.24F
LOGAN          PTSUNNY   63  55  75 NE9       30.25S
OGDEN          LGT RAIN  66  53  63 N12       30.23F
PROVO AIRPORT    N/A     77  46  33 W6        30.21F
SALT LAKE CITY PTSUNNY   77  45  32 S14       30.18F
VERNAL         CLOUDY    63  54  72 CALM      30.36F
WENDOVER         N/A    N/A N/A N/A MISG        N/A
HEBER CITY       N/A     75  41  29 SW14      30.25F
WEST JORDAN    MOSUNNY   75  46  35 SE14      30.21F

$$

UTZ012>022-026-027-292200-

SOUTHERN/CENTRAL UTAH

CITY           SKY/WX    TMP DP  RH WIND       PRES   REMARKS
BLANDING       CLOUDY    58  55  88 E5        30.50F
BRYCE CANYON   CLOUDY    55  46  71 N8        30.45F
CEDAR CITY       N/A     73  45  36 SW18G24   30.29F
DELTA          PTSUNNY   73  41  31 W12       30.23S
MILFORD          N/A     76  43  30 S15G28    30.24F
MOAB/CYNLANDS  CLOUDY    70  56  61 MISG      30.30F
PRICE          PTSUNNY   66  51  58 E12       30.35F
ST GEORGE        N/A     82  55  39 E15G21    30.18F

$$

REGIONAL REPORTS     COLORADO/ARIZONA

CITY           SKY/WX    TMP DP  RH WIND       PRES   REMARKS
CRAIG, CO      CLOUDY    59  51  75 W15       30.42S
GRAND JUNCTION CLOUDY    61  57  87 CALM      30.35F
RIFLE          CLOUDY    66  51  58 W14       30.36F
MONTROSE       CLOUDY    63  50  62 N8        30.41F
CORTEZ         LGT RAIN  56  52  86 SW7       30.46S
PAGE, AZ       CLOUDY    70  57  63 VRB3      30.28F
GRAND CANYON   LGT RAIN  61  50  67 S6        30.40S
KINGMAN          N/A     86  46  24 SW14      30.17F
FLAGSTAFF      PTSUNNY   58  51  78 S5        30.42F

$$

REGIONAL REPORTS    NEVADA/IDAHO/WYOMING

CITY           SKY/WX    TMP DP  RH WIND       PRES   REMARKS
LAS VEGAS, NV    N/A     87  45  23 SE9       30.08F
ELY            PTSUNNY   66  41  40 W16       30.30F
ELKO             N/A     80  36  20 VRB6      30.15F
POCATELLO, ID  NOT AVBL
BURLEY           N/A     79  44  28 S7        30.10F
EVANSTON, WY   CLOUDY    68  37  32 SW17      30.33F
ROCK SPRINGS   PTSUNNY   63  47  55 S28       30.34F

$$




USA.gov is the U.S. government's official web portal to all federal, state and local government web resources and services.